When you browse on this site, cookies collect data to enhance your experience and personalize the content and advertising you see.
Visit our Privacy Policy to learn more. By continuing to use the site, you agree to this use of cookies and data.
  • In Slovakia
  • List of Countries
  • For 7 days
  • Water Temperature
  • Weather Map
  • Weather Widgets
  • user-avatar
    Login

    Hourly Weather Nelgomozero

    Today, 31 March, Tuesday

    Time Temperature Precipitation Wind Pressure Humidity
    00:00 -8°C° 0 mm 2 mps 753 mmHg 84%
    01:00 -7°C° 0 mm 1 mps 753 mmHg 84%
    02:00 -8°C° 0 mm 1 mps 753 mmHg 85%
    03:00 -8°C° 0 mm 1 mps 752 mmHg 86%
    04:00 -8°C° 0 mm 1 mps 752 mmHg 87%
    05:00 -8°C° 0 mm 1 mps 752 mmHg 87%
    06:00 -7°C° 0 mm 1 mps 752 mmHg 82%
    07:00 -7°C° 0 mm 2 mps 752 mmHg 77%
    08:00 -6°C° 0 mm 2 mps 752 mmHg 72%
    09:00 -5°C° 0 mm 2 mps 751 mmHg 64%
    10:00 -5°C° 0 mm 3 mps 750 mmHg 55%
    11:00 -4°C° 0 mm 3 mps 749 mmHg 47%
    12:00 -4°C° 0 mm 4 mps 749 mmHg 47%
    13:00 -3°C° 0 mm 4 mps 748 mmHg 47%
    14:00 -3°C° 0 mm 4 mps 747 mmHg 47%
    15:00 -4°C° 0 mm 4 mps 746 mmHg 48%
    16:00 -4°C° 0 mm 4 mps 745 mmHg 49%
    17:00 -4°C° 0 mm 4 mps 743 mmHg 51%
    18:00 -5°C° 0 mm 4 mps 742 mmHg 62%
    19:00 -6°C° 0 mm 5 mps 741 mmHg 73%
    20:00 -7°C° 0 mm 5 mps 740 mmHg 84%
    21:00 -7°C° 0.3 mm 5 mps 739 mmHg 86%
    22:00 -6°C° 0.3 mm 5 mps 737 mmHg 89%
    23:00 -6°C° 0.3 mm 5 mps 736 mmHg 92%

    Tomorrow, 1 April, Wednesday

    Time Temperature Precipitation Wind Pressure Humidity
    00:00 -6°C° 0.5 mm 5 mps 735 mmHg 92%
    01:00 -6°C° 0.5 mm 5 mps 734 mmHg 92%
    02:00 -6°C° 0.5 mm 5 mps 733 mmHg 93%
    03:00 -5°C° 0.2 mm 5 mps 733 mmHg 93%
    04:00 -4°C° 0.2 mm 4 mps 732 mmHg 93%
    05:00 -4°C° 0.2 mm 4 mps 731 mmHg 94%
    06:00 -3°C° 0.2 mm 4 mps 731 mmHg 93%
    07:00 -3°C° 0.2 mm 4 mps 730 mmHg 92%
    08:00 -1°C° 0.2 mm 3 mps 730 mmHg 91%
    09:00 -1°C° 0.2 mm 4 mps 730 mmHg 85%
    10:00 -1°C° 0.2 mm 4 mps 729 mmHg 78%
    11:00 0°C° 0.2 mm 4 mps 729 mmHg 72%
    12:00 0°C° 0.1 mm 4 mps 729 mmHg 74%
    13:00 0°C° 0.1 mm 4 mps 728 mmHg 76%
    14:00 0°C° 0.1 mm 4 mps 728 mmHg 78%
    15:00 -1°C° 0.1 mm 4 mps 728 mmHg 84%
    16:00 -1°C° 0.1 mm 4 mps 728 mmHg 89%
    17:00 -1°C° 0.1 mm 3 mps 728 mmHg 94%
    18:00 -1°C° 0.1 mm 3 mps 728 mmHg 93%
    19:00 -1°C° 0.1 mm 3 mps 728 mmHg 92%
    20:00 -2°C° 0.1 mm 3 mps 728 mmHg 91%
    21:00 -2°C° 0 mm 3 mps 728 mmHg 91%
    22:00 -4°C° 0 mm 3 mps 728 mmHg 90%
    23:00 -4°C° 0 mm 4 mps 728 mmHg 90%

    Day after tomorrow, 2 April, Thursday

    Time Temperature Precipitation Wind Pressure Humidity
    00:00 -4°C° 0 mm 4 mps 728 mmHg 89%
    01:00 -4°C° 0 mm 4 mps 729 mmHg 88%
    02:00 -5°C° 0 mm 4 mps 729 mmHg 87%
    03:00 -5°C° 0 mm 4 mps 729 mmHg 86%
    04:00 -7°C° 0 mm 4 mps 729 mmHg 85%
    05:00 -7°C° 0 mm 4 mps 730 mmHg 83%
    06:00 -7°C° 0 mm 4 mps 730 mmHg 81%
    07:00 -6°C° 0 mm 3 mps 730 mmHg 79%
    08:00 -6°C° 0 mm 3 mps 731 mmHg 77%
    09:00 -5°C° 0 mm 3 mps 730 mmHg 73%
    10:00 -2°C° 0 mm 3 mps 730 mmHg 69%
    11:00 -1°C° 0 mm 3 mps 730 mmHg 66%
    12:00 -2°C° 0 mm 4 mps 730 mmHg 72%
    13:00 -2°C° 0 mm 4 mps 730 mmHg 79%
    14:00 -2°C° 0 mm 4 mps 729 mmHg 86%
    15:00 -2°C° 0.3 mm 5 mps 729 mmHg 89%
    16:00 -1°C° 0.3 mm 5 mps 728 mmHg 92%
    17:00 -2°C° 0.3 mm 6 mps 727 mmHg 95%
    18:00 -2°C° 0.3 mm 6 mps 727 mmHg 95%
    19:00 -2°C° 0.3 mm 6 mps 726 mmHg 95%
    20:00 -2°C° 0.3 mm 6 mps 726 mmHg 95%
    21:00 -2°C° 0.2 mm 6 mps 725 mmHg 95%
    22:00 -2°C° 0.2 mm 6 mps 724 mmHg 94%
    23:00 -2°C° 0.2 mm 6 mps 724 mmHg 94%

    3 April, Friday

    Time Temperature Precipitation Wind Pressure Humidity
    00:00 -2°C° 0.1 mm 6 mps 723 mmHg 93%
    01:00 -2°C° 0.1 mm 6 mps 722 mmHg 93%
    02:00 -2°C° 0.1 mm 7 mps 722 mmHg 93%
    03:00 -2°C° 0.9 mm 7 mps 721 mmHg 93%
    04:00 -2°C° 0.9 mm 7 mps 720 mmHg 94%
    05:00 -2°C° 0.9 mm 8 mps 720 mmHg 95%
    06:00 -2°C° 0.8 mm 7 mps 720 mmHg 92%
    07:00 -2°C° 0.8 mm 7 mps 720 mmHg 88%
    08:00 -2°C° 0.8 mm 6 mps 720 mmHg 85%
    09:00 -2°C° 0.3 mm 6 mps 721 mmHg 84%
    10:00 -2°C° 0.3 mm 6 mps 721 mmHg 82%
    11:00 -2°C° 0.3 mm 6 mps 721 mmHg 81%
    12:00 -2°C° 0.3 mm 7 mps 721 mmHg 80%
    13:00 -1°C° 0.3 mm 7 mps 721 mmHg 79%
    14:00 -1°C° 0.3 mm 7 mps 721 mmHg 78%
    15:00 -2°C° 0.3 mm 6 mps 721 mmHg 82%
    16:00 -2°C° 0.3 mm 6 mps 721 mmHg 86%
    17:00 -1°C° 0.3 mm 5 mps 721 mmHg 90%
    18:00 -2°C° 0.1 mm 5 mps 722 mmHg 88%
    19:00 -2°C° 0.1 mm 5 mps 724 mmHg 86%
    20:00 -4°C° 0.1 mm 5 mps 725 mmHg 84%
    21:00 -4°C° 0 mm 5 mps 726 mmHg 82%
    22:00 -5°C° 0 mm 5 mps 727 mmHg 81%
    23:00 -5°C° 0 mm 5 mps 728 mmHg 79%

    4 April, Saturday

    Time Temperature Precipitation Wind Pressure Humidity
    00:00 -6°C° 0 mm 5 mps 729 mmHg 79%
    01:00 -6°C° 0 mm 5 mps 729 mmHg 80%
    02:00 -7°C° 0 mm 4 mps 730 mmHg 80%
    03:00 -7°C° 0 mm 4 mps 730 mmHg 80%
    04:00 -7°C° 0 mm 4 mps 731 mmHg 81%
    05:00 -7°C° 0 mm 4 mps 732 mmHg 81%
    06:00 -5°C° 0 mm 4 mps 732 mmHg 78%
    07:00 -5°C° 0 mm 5 mps 732 mmHg 74%
    08:00 -4°C° 0 mm 5 mps 733 mmHg 71%
    09:00 -4°C° 0.2 mm 6 mps 733 mmHg 68%
    10:00 -3°C° 0.2 mm 6 mps 733 mmHg 64%
    11:00 -3°C° 0.2 mm 6 mps 734 mmHg 61%
    12:00 -3°C° 0.1 mm 6 mps 734 mmHg 61%
    13:00 -3°C° 0.1 mm 6 mps 735 mmHg 61%
    14:00 -2°C° 0.1 mm 6 mps 736 mmHg 61%
    15:00 -2°C° 0.1 mm 5 mps 736 mmHg 61%
    16:00 -2°C° 0.1 mm 5 mps 737 mmHg 60%
    17:00 -2°C° 0.1 mm 4 mps 738 mmHg 60%
    18:00 -3°C° 0 mm 4 mps 739 mmHg 63%
    19:00 -3°C° 0 mm 4 mps 739 mmHg 67%
    20:00 -4°C° 0 mm 3 mps 740 mmHg 70%
    21:00 -4°C° 0 mm 3 mps 741 mmHg 71%
    22:00 -4°C° 0 mm 3 mps 741 mmHg 72%
    23:00 -5°C° 0 mm 3 mps 742 mmHg 73%

    5 April, Sunday

    Time Temperature Precipitation Wind Pressure Humidity
    00:00 -5°C° 0 mm 3 mps 743 mmHg 72%
    01:00 -5°C° 0 mm 3 mps 743 mmHg 71%
    02:00 -5°C° 0 mm 3 mps 744 mmHg 69%
    03:00 -6°C° 0 mm 3 mps 745 mmHg 70%
    04:00 -7°C° 0 mm 4 mps 745 mmHg 70%
    05:00 -7°C° 0 mm 4 mps 746 mmHg 70%
    06:00 -5°C° 0 mm 4 mps 746 mmHg 69%
    07:00 -5°C° 0 mm 4 mps 747 mmHg 67%
    08:00 -5°C° 0 mm 5 mps 747 mmHg 66%
    09:00 -4°C° 0 mm 5 mps 747 mmHg 61%
    10:00 -4°C° 0 mm 5 mps 748 mmHg 56%
    11:00 -3°C° 0 mm 6 mps 748 mmHg 51%
    12:00 -3°C° 0.1 mm 6 mps 748 mmHg 50%
    13:00 -3°C° 0.1 mm 6 mps 748 mmHg 49%
    14:00 -3°C° 0.1 mm 6 mps 749 mmHg 47%
    15:00 -2°C° 0 mm 5 mps 749 mmHg 50%
    16:00 -2°C° 0 mm 4 mps 749 mmHg 52%
    17:00 -1°C° 0 mm 3 mps 749 mmHg 54%
    18:00 -2°C° 0 mm 3 mps 749 mmHg 60%
    19:00 -3°C° 0 mm 2 mps 748 mmHg 66%
    20:00 -3°C° 0 mm 2 mps 748 mmHg 72%
    21:00 -3°C° 0.1 mm 2 mps 747 mmHg 77%
    22:00 -3°C° 0.1 mm 2 mps 747 mmHg 83%
    23:00 -3°C° 0.1 mm 2 mps 746 mmHg 89%
    Show more